Starlink 34910

operational
NORAD ID: 66270 Int'l Des: 2025-247 Owner: SPXS Country: US Constellation: starlink
NOTLE

About Starlink 34910

Description loading...

Live Position

Loading 3D Globe...

Upcoming Passes

Altitude History

Altitude vs Time

uPlot chart will show altitude changes over time

Two-Line Element Set

1 66270C 25247E 25305.08868056 .00450580 00000+0 68050-3 0 3051
2 66270 53.1569 79.6451 0008681 261.7675 85.6668 16.03338239 19
Epoch: Nov 1, 2025 • Age: 22 hours

Current Status

Altitude 273.5 km
Velocity 7.75 km/s
Sub-Earth Point 46.84°N, 118.1°E
Launch Date Oct 31, 2025
Age 1 days
Type internet

Technical Details

Classification Payload
Mass 575.00 kg
Dry Mass 530.00 kg
Total Mass 575.00 kg
Length 0.30 m
Diameter 4.10 m
Span 29.00 m
Shape Box + pan
Manufacturer SPXS
Bus Type Starlink V2MO
Phase Status In Orbit
Owner/State SPXS/US

Large Constellations

Loading constellations...